Location: Newark
(40.8171°N, 74.0850°W)
Time: 22:28:55
(UTC+00:00)

LightSail 2 - Visible Passes

Search period start: 06 April 2020 00:00
Search period end: 16 April 2020 00:00
Orbit: 694 x 724 km, 24.0° (Epoch: 06 April)

Date Brightness Start Highest point End Pass type
(mag) Time Alt. Az. Time Alt. Az. Time Alt. Az.
08 Apr 7.4 09:33:09 10° S 09:33:47 10° S 09:34:26 10° SSE visible
10 Apr 7.3 09:18:52 10° SSW 09:20:14 11° S 09:21:37 10° SSE visible
12 Apr 7.2 09:05:35 10° SSW 09:06:39 11° S 09:07:52 10° S visible
